Wetterdaten: Woche 05.03.18 - 11.03.18 (KW10)
Datum Zeit Temp. I. Temp. A. Boden 5 cm Feuchte A. Sonne Luftdruck Regen Wind Sonnenschein
05.03.2018 00:00 23,9 C -1,0 C -0,1 C 73 % 19 % 1001 hPa 0,0 l/m 12,6 km/h (3 Bft) 0,00 h
05.03.2018 01:00 23,7 C -1,5 C -0,3 C 74 % 19 % 1002 hPa 0,0 l/m 6,9 km/h (2 Bft) 0,00 h
05.03.2018 02:00 23,4 C -1,8 C -0,6 C 75 % 19 % 1002 hPa 0,0 l/m 7,2 km/h (2 Bft) 0,00 h
05.03.2018 03:00 23,2 C -2,2 C -0,8 C 77 % 19 % 1002 hPa 0,0 l/m 6,1 km/h (2 Bft) 0,00 h
05.03.2018 04:00 23,2 C -2,4 C -1,0 C 78 % 19 % 1003 hPa 0,0 l/m 6,6 km/h (2 Bft) 0,00 h
05.03.2018 05:00 23,1 C -2,4 C -1,1 C 79 % 19 % 1003 hPa 0,0 l/m 7,3 km/h (2 Bft) 0,00 h
05.03.2018 06:00 23,0 C -2,6 C -1,3 C 80 % 19 % 1003 hPa 0,0 l/m 4,4 km/h (1 Bft) 0,15 h
05.03.2018 07:00 22,9 C -2,5 C -1,1 C 80 % 19 % 1003 hPa 0,0 l/m 5,1 km/h (1 Bft) 0,85 h
05.03.2018 08:00 22,9 C -1,9 C -0,9 C 80 % 19 % 1004 hPa 0,0 l/m 6,7 km/h (2 Bft) 0,00 h
05.03.2018 09:00 22,9 C -1,2 C -0,4 C 79 % 19 % 1003 hPa 0,0 l/m 13,5 km/h (3 Bft) 0,00 h
05.03.2018 10:00 22,1 C 0,2 C 0,4 C 76 % 19 % 1003 hPa 0,0 l/m 14,3 km/h (3 Bft) 0,00 h
05.03.2018 11:00 21,3 C 0,8 C 1,1 C 74 % 19 % 1002 hPa 0,0 l/m 13,3 km/h (3 Bft) 0,00 h
05.03.2018 12:00 23,1 C 2,0 C 1,8 C 71 % 19 % 1002 hPa 0,0 l/m 10,7 km/h (2 Bft) 0,00 h
05.03.2018 13:00 23,4 C 3,2 C 2,6 C 68 % 19 % 1001 hPa 0,0 l/m 13,6 km/h (3 Bft) 0,00 h
05.03.2018 14:00 23,3 C 4,4 C 3,3 C 64 % 19 % 1000 hPa 0,0 l/m 16,3 km/h (3 Bft) 0,00 h
05.03.2018 15:00 23,6 C 5,3 C 4,3 C 61 % 19 % 999 hPa 0,0 l/m 15,0 km/h (3 Bft) 0,00 h
05.03.2018 16:00 22,8 C 4,7 C 4,1 C 63 % 19 % 998 hPa 0,0 l/m 10,7 km/h (2 Bft) 0,25 h
05.03.2018 17:00 23,5 C 3,2 C 3,1 C 69 % 19 % 998 hPa 0,0 l/m 5,1 km/h (1 Bft) 0,80 h
05.03.2018 18:00 24,1 C 1,5 C 2,2 C 75 % 19 % 997 hPa 0,0 l/m 7,6 km/h (2 Bft) 0,00 h
05.03.2018 19:00 24,0 C 0,4 C 1,4 C 77 % 19 % 997 hPa 0,0 l/m 4,8 km/h (1 Bft) 0,00 h
05.03.2018 20:00 24,3 C -0,2 C 0,9 C 78 % 19 % 997 hPa 0,0 l/m 6,2 km/h (2 Bft) 0,00 h
05.03.2018 21:00 24,6 C -0,7 C 0,5 C 80 % 19 % 997 hPa 0,0 l/m 6,6 km/h (2 Bft) 0,00 h
05.03.2018 22:00 24,5 C -1,2 C 0,3 C 81 % 19 % 997 hPa 0,0 l/m 2,2 km/h (1 Bft) 0,00 h
05.03.2018 23:00 24,3 C -1,3 C 0,1 C 81 % 19 % 996 hPa 0,0 l/m 4,0 km/h (1 Bft) 0,00 h
06.03.2018 00:00 24,0 C -1,2 C 0,0 C 81 % 19 % 996 hPa 0,0 l/m 3,6 km/h (1 Bft) 0,00 h
06.03.2018 01:00 24,0 C -1,0 C 0,0 C 79 % 19 % 996 hPa 0,0 l/m 6,5 km/h (2 Bft) 0,00 h
06.03.2018 02:00 23,8 C -0,8 C 0,0 C 79 % 19 % 995 hPa 0,0 l/m 7,1 km/h (2 Bft) 0,00 h
06.03.2018 03:00 23,6 C -0,9 C 0,0 C 79 % 19 % 995 hPa 0,0 l/m 4,8 km/h (1 Bft) 0,00 h
06.03.2018 04:00 23,5 C -0,9 C 0,0 C 79 % 19 % 995 hPa 0,0 l/m 2,7 km/h (1 Bft) 0,00 h
06.03.2018 05:00 23,4 C -0,8 C 0,0 C 79 % 19 % 994 hPa 0,0 l/m 0,6 km/h (0 Bft) 0,00 h
06.03.2018 06:00 23,3 C -0,8 C 0,0 C 79 % 19 % 994 hPa 0,0 l/m 0,0 km/h (0 Bft) 0,20 h
06.03.2018 07:00 23,4 C -0,7 C 0,1 C 79 % 19 % 994 hPa 0,0 l/m 0,1 km/h (0 Bft) 0,85 h
06.03.2018 08:00 23,4 C -0,1 C 0,3 C 78 % 19 % 994 hPa 0,0 l/m 0,9 km/h (0 Bft) 0,00 h
06.03.2018 09:00 23,4 C 0,8 C 0,9 C 76 % 19 % 994 hPa 0,0 l/m 4,3 km/h (1 Bft) 0,00 h
06.03.2018 10:00 23,1 C 1,5 C 1,4 C 76 % 19 % 994 hPa 0,0 l/m 6,6 km/h (2 Bft) 0,00 h
06.03.2018 11:00 22,3 C 1,7 C 1,6 C 76 % 19 % 994 hPa 0,0 l/m 8,4 km/h (2 Bft) 0,00 h
06.03.2018 12:00 23,7 C 2,0 C 1,8 C 76 % 19 % 993 hPa 0,0 l/m 7,2 km/h (2 Bft) 0,00 h
06.03.2018 13:00 23,5 C 2,0 C 1,9 C 76 % 19 % 993 hPa 0,0 l/m 4,6 km/h (1 Bft) 0,00 h
06.03.2018 14:00 23,3 C 2,1 C 2,0 C 76 % 19 % 993 hPa 0,0 l/m 5,2 km/h (1 Bft) 0,00 h
06.03.2018 15:00 23,2 C 1,9 C 2,0 C 77 % 19 % 993 hPa 0,0 l/m 2,9 km/h (1 Bft) 0,00 h
06.03.2018 16:00 23,0 C 1,9 C 1,9 C 78 % 19 % 993 hPa 0,0 l/m 1,2 km/h (1 Bft) 0,20 h
06.03.2018 17:00 22,7 C 1,7 C 1,8 C 79 % 19 % 994 hPa 0,0 l/m 0,6 km/h (0 Bft) 0,80 h
06.03.2018 18:00 22,7 C 1,3 C 1,5 C 80 % 19 % 994 hPa 0,0 l/m 0,2 km/h (0 Bft) 0,00 h
06.03.2018 19:00 22,8 C 0,9 C 1,3 C 80 % 19 % 995 hPa 0,0 l/m 0,1 km/h (0 Bft) 0,00 h
06.03.2018 20:00 22,9 C 0,9 C 1,1 C 80 % 19 % 995 hPa 0,0 l/m 0,0 km/h (0 Bft) 0,00 h
06.03.2018 21:00 22,9 C 0,7 C 1,0 C 79 % 19 % 995 hPa 0,0 l/m 0,0 km/h (0 Bft) 0,00 h
06.03.2018 22:00 22,4 C 0,7 C 0,9 C 77 % 19 % 996 hPa 0,0 l/m 0,0 km/h (0 Bft) 0,00 h
06.03.2018 23:00 22,5 C 0,7 C 0,9 C 76 % 19 % 996 hPa 0,0 l/m 0,0 km/h (0 Bft) 0,00 h
07.03.2018 00:00 22,5 C 0,7 C 0,9 C 77 % 19 % 996 hPa 0,0 l/m 0,0 km/h (0 Bft) 0,00 h
07.03.2018 01:00 22,4 C 0,7 C 0,9 C 77 % 19 % 996 hPa 0,0 l/m 0,0 km/h (0 Bft) 0,00 h
07.03.2018 02:00 22,4 C 0,7 C 0,8 C 78 % 19 % 996 hPa 0,3 l/m 0,2 km/h (0 Bft) 0,00 h
07.03.2018 03:00 22,4 C 0,6 C 0,7 C 78 % 19 % 996 hPa 0,0 l/m 0,0 km/h (0 Bft) 0,00 h
07.03.2018 04:00 22,4 C 0,9 C 0,8 C 78 % 19 % 996 hPa 0,7 l/m 0,0 km/h (0 Bft) 0,00 h
07.03.2018 05:00 22,4 C 0,9 C 0,8 C 78 % 19 % 997 hPa 0,0 l/m 0,0 km/h (0 Bft) 0,00 h
07.03.2018 06:00 22,4 C 0,9 C 0,8 C 78 % 19 % 997 hPa 0,0 l/m 0,0 km/h (0 Bft) 0,20 h
07.03.2018 07:00 22,4 C 1,2 C 0,9 C 78 % 19 % 998 hPa 1,0 l/m 0,0 km/h (0 Bft) 0,80 h
07.03.2018 08:00 22,5 C 2,0 C 1,3 C 78 % 19 % 999 hPa 0,0 l/m 0,0 km/h (0 Bft) 0,00 h
07.03.2018 09:00 22,5 C 3,6 C 2,3 C 77 % 19 % 999 hPa 0,0 l/m 0,1 km/h (0 Bft) 0,00 h
07.03.2018 10:00 22,6 C 5,8 C 3,9 C 75 % 19 % 1000 hPa 0,0 l/m 5,7 km/h (1 Bft) 0,00 h
07.03.2018 11:00 22,6 C 7,1 C 4,9 C 70 % 19 % 1000 hPa 0,0 l/m 10,2 km/h (2 Bft) 0,00 h
07.03.2018 12:00 21,8 C 9,0 C 6,7 C 61 % 19 % 1000 hPa 0,0 l/m 11,5 km/h (2 Bft) 0,00 h
07.03.2018 13:00 21,9 C 10,2 C 8,9 C 54 % 19 % 1000 hPa 0,0 l/m 9,0 km/h (2 Bft) 0,00 h
07.03.2018 14:00 22,2 C 10,1 C 9,1 C 55 % 19 % 1000 hPa 0,0 l/m 5,0 km/h (1 Bft) 0,00 h
07.03.2018 15:00 22,3 C 8,2 C 8,0 C 67 % 19 % 1001 hPa 0,7 l/m 4,1 km/h (1 Bft) 0,00 h
07.03.2018 16:00 22,4 C 8,5 C 7,4 C 65 % 19 % 1001 hPa 0,0 l/m 6,8 km/h (2 Bft) 0,20 h
07.03.2018 17:00 22,4 C 7,3 C 6,2 C 66 % 19 % 1001 hPa 0,0 l/m 0,9 km/h (0 Bft) 0,85 h
07.03.2018 18:00 22,4 C 5,4 C 5,2 C 74 % 19 % 1002 hPa 0,0 l/m 0,0 km/h (0 Bft) 0,00 h
07.03.2018 19:00 22,4 C 4,0 C 4,3 C 79 % 19 % 1003 hPa 0,0 l/m 0,0 km/h (0 Bft) 0,00 h
07.03.2018 20:00 22,4 C 3,3 C 3,6 C 78 % 19 % 1003 hPa 0,0 l/m 0,0 km/h (0 Bft) 0,00 h
07.03.2018 21:00 22,4 C 2,5 C 3,0 C 79 % 19 % 1004 hPa 0,0 l/m 0,0 km/h (0 Bft) 0,00 h
07.03.2018 22:00 22,3 C 2,5 C 2,6 C 78 % 19 % 1005 hPa 0,0 l/m 0,0 km/h (0 Bft) 0,00 h
07.03.2018 23:00 22,2 C 2,5 C 2,4 C 77 % 19 % 1005 hPa 0,0 l/m 0,0 km/h (0 Bft) 0,00 h
08.03.2018 00:00 22,2 C 2,3 C 2,3 C 77 % 19 % 1006 hPa 0,0 l/m 1,6 km/h (1 Bft) 0,00 h
08.03.2018 01:00 22,2 C 1,9 C 2,0 C 78 % 19 % 1007 hPa 0,0 l/m 0,0 km/h (0 Bft) 0,00 h
08.03.2018 02:00 22,2 C 1,6 C 1,8 C 79 % 19 % 1007 hPa 0,0 l/m 0,0 km/h (0 Bft) 0,00 h
08.03.2018 03:00 22,2 C 1,6 C 1,7 C 79 % 19 % 1007 hPa 0,0 l/m 0,0 km/h (0 Bft) 0,00 h
08.03.2018 04:00 22,2 C 3,1 C 2,5 C 72 % 19 % 1008 hPa 0,0 l/m 8,5 km/h (2 Bft) 0,00 h
08.03.2018 05:00 22,2 C 3,3 C 2,6 C 72 % 19 % 1008 hPa 0,0 l/m 2,3 km/h (1 Bft) 0,00 h
08.03.2018 06:00 22,2 C 2,3 C 2,1 C 76 % 19 % 1009 hPa 0,0 l/m 0,0 km/h (0 Bft) 0,25 h
08.03.2018 07:00 22,2 C 2,6 C 2,0 C 75 % 19 % 1010 hPa 0,0 l/m 0,9 km/h (0 Bft) 0,75 h
08.03.2018 08:00 22,2 C 3,6 C 2,6 C 72 % 19 % 1010 hPa 0,0 l/m 0,9 km/h (0 Bft) 0,00 h
08.03.2018 09:00 22,1 C 4,5 C 3,3 C 70 % 19 % 1011 hPa 0,0 l/m 3,7 km/h (1 Bft) 0,00 h
08.03.2018 10:00 21,2 C 6,7 C 5,2 C 63 % 19 % 1011 hPa 0,0 l/m 16,9 km/h (3 Bft) 0,00 h
08.03.2018 11:00 22,0 C 8,4 C 6,9 C 52 % 19 % 1011 hPa 0,0 l/m 20,3 km/h (4 Bft) 0,00 h
08.03.2018 12:00 22,1 C 9,9 C 9,1 C 44 % 19 % 1011 hPa 0,0 l/m 16,3 km/h (3 Bft) 0,00 h
08.03.2018 13:00 22,2 C 10,9 C 11,3 C 38 % 19 % 1010 hPa 0,0 l/m 14,8 km/h (3 Bft) 0,00 h
08.03.2018 14:00 22,3 C 11,3 C 12,3 C 38 % 19 % 1010 hPa 0,0 l/m 10,3 km/h (2 Bft) 0,00 h
08.03.2018 15:00 22,3 C 10,5 C 11,2 C 40 % 19 % 1009 hPa 0,0 l/m 5,7 km/h (1 Bft) 0,00 h
08.03.2018 16:00 22,3 C 10,9 C 10,2 C 37 % 19 % 1009 hPa 0,0 l/m 0,8 km/h (0 Bft) 0,15 h
08.03.2018 17:00 22,2 C 9,6 C 8,8 C 45 % 19 % 1008 hPa 0,0 l/m 1,1 km/h (1 Bft) 0,85 h
08.03.2018 18:00 21,6 C 6,3 C 7,1 C 59 % 19 % 1008 hPa 0,0 l/m 0,5 km/h (0 Bft) 0,00 h
08.03.2018 19:00 21,7 C 4,3 C 5,7 C 65 % 19 % 1009 hPa 0,0 l/m 0,2 km/h (0 Bft) 0,00 h
08.03.2018 20:00 21,9 C 2,8 C 4,6 C 69 % 19 % 1009 hPa 0,0 l/m 0,1 km/h (0 Bft) 0,00 h
08.03.2018 21:00 21,9 C 1,5 C 3,5 C 74 % 19 % 1009 hPa 0,0 l/m 0,5 km/h (0 Bft) 0,00 h
08.03.2018 22:00 22,0 C 0,6 C 2,6 C 78 % 19 % 1009 hPa 0,0 l/m 0,0 km/h (0 Bft) 0,00 h
08.03.2018 23:00 22,0 C -0,6 C 1,7 C 81 % 19 % 1010 hPa 0,0 l/m 0,2 km/h (0 Bft) 0,00 h
09.03.2018 00:00 22,0 C -1,1 C 1,2 C 83 % 19 % 1010 hPa 0,0 l/m 0,0 km/h (0 Bft) 0,00 h
09.03.2018 01:00 22,0 C -0,9 C 1,0 C 84 % 19 % 1010 hPa 0,0 l/m 0,0 km/h (0 Bft) 0,00 h
09.03.2018 02:00 22,0 C -0,8 C 0,8 C 83 % 19 % 1010 hPa 0,0 l/m 0,0 km/h (0 Bft) 0,00 h
09.03.2018 03:00 22,0 C -0,5 C 0,7 C 83 % 19 % 1010 hPa 0,0 l/m 0,0 km/h (0 Bft) 0,00 h
09.03.2018 04:00 22,1 C 0,4 C 0,8 C 81 % 19 % 1011 hPa 0,0 l/m 0,3 km/h (0 Bft) 0,00 h
09.03.2018 05:00 22,1 C 0,2 C 0,9 C 82 % 19 % 1012 hPa 0,0 l/m 0,6 km/h (0 Bft) 0,00 h
09.03.2018 06:00 22,1 C 0,3 C 0,8 C 82 % 19 % 1012 hPa 0,0 l/m 0,7 km/h (0 Bft) 0,30 h
09.03.2018 07:00 22,1 C 0,6 C 1,0 C 82 % 19 % 1013 hPa 0,0 l/m 0,0 km/h (0 Bft) 0,75 h
09.03.2018 08:00 22,1 C 1,7 C 1,5 C 79 % 19 % 1013 hPa 0,0 l/m 0,9 km/h (0 Bft) 0,00 h
09.03.2018 09:00 22,2 C 3,6 C 2,7 C 72 % 19 % 1013 hPa 0,0 l/m 1,3 km/h (1 Bft) 0,00 h
09.03.2018 10:00 22,2 C 5,7 C 4,0 C 65 % 19 % 1013 hPa 0,0 l/m 2,5 km/h (1 Bft) 0,00 h
09.03.2018 11:00 22,2 C 6,4 C 5,1 C 63 % 19 % 1013 hPa 0,0 l/m 2,0 km/h (1 Bft) 0,00 h
09.03.2018 12:00 21,7 C 8,1 C 6,3 C 58 % 19 % 1013 hPa 0,0 l/m 3,3 km/h (1 Bft) 0,00 h
09.03.2018 13:00 21,7 C 9,4 C 8,0 C 54 % 19 % 1013 hPa 0,0 l/m 3,0 km/h (1 Bft) 0,00 h
09.03.2018 14:00 22,3 C 9,9 C 8,3 C 55 % 19 % 1012 hPa 0,0 l/m 4,2 km/h (1 Bft) 0,00 h
09.03.2018 15:00 22,2 C 10,4 C 8,9 C 56 % 19 % 1012 hPa 0,0 l/m 4,2 km/h (1 Bft) 0,00 h
09.03.2018 16:00 22,0 C 10,3 C 9,0 C 56 % 19 % 1012 hPa 0,0 l/m 1,9 km/h (1 Bft) 0,15 h
09.03.2018 17:00 22,2 C 9,2 C 8,3 C 60 % 19 % 1012 hPa 0,0 l/m 0,7 km/h (0 Bft) 0,90 h
09.03.2018 18:00 21,8 C 7,1 C 7,1 C 68 % 19 % 1012 hPa 0,0 l/m 0,0 km/h (0 Bft) 0,00 h
09.03.2018 19:00 22,3 C 6,0 C 6,3 C 73 % 19 % 1012 hPa 0,0 l/m 0,0 km/h (0 Bft) 0,00 h
09.03.2018 20:00 22,7 C 6,0 C 6,0 C 72 % 19 % 1012 hPa 0,0 l/m 0,0 km/h (0 Bft) 0,00 h
09.03.2018 21:00 23,0 C 6,0 C 5,8 C 72 % 19 % 1012 hPa 0,0 l/m 0,4 km/h (0 Bft) 0,00 h
09.03.2018 22:00 22,9 C 6,1 C 5,6 C 71 % 19 % 1012 hPa 0,0 l/m 1,5 km/h (1 Bft) 0,00 h
09.03.2018 23:00 22,7 C 5,4 C 5,3 C 74 % 19 % 1011 hPa 0,0 l/m 0,1 km/h (0 Bft) 0,00 h
10.03.2018 00:00 22,9 C 4,5 C 4,9 C 77 % 19 % 1011 hPa 0,0 l/m 0,1 km/h (0 Bft) 0,00 h
10.03.2018 01:00 22,4 C 4,5 C 4,6 C 76 % 19 % 1011 hPa 0,0 l/m 1,5 km/h (1 Bft) 0,00 h
10.03.2018 02:00 23,0 C 4,9 C 4,5 C 73 % 19 % 1011 hPa 0,0 l/m 0,0 km/h (0 Bft) 0,00 h
10.03.2018 03:00 22,7 C 4,7 C 4,6 C 75 % 19 % 1011 hPa 0,0 l/m 0,4 km/h (0 Bft) 0,00 h
10.03.2018 04:00 22,6 C 3,9 C 4,2 C 77 % 19 % 1010 hPa 0,0 l/m 0,1 km/h (0 Bft) 0,00 h
10.03.2018 05:00 22,4 C 2,7 C 3,7 C 81 % 19 % 1010 hPa 0,0 l/m 0,0 km/h (0 Bft) 0,00 h
10.03.2018 06:00 22,4 C 1,7 C 3,0 C 84 % 19 % 1010 hPa 0,0 l/m 0,0 km/h (0 Bft) 0,30 h
10.03.2018 07:00 22,3 C 1,7 C 2,8 C 85 % 19 % 1010 hPa 0,0 l/m 0,0 km/h (0 Bft) 0,40 h
10.03.2018 08:00 22,3 C 4,3 C 3,4 C 77 % 19 % 1010 hPa 0,0 l/m 2,1 km/h (1 Bft) 0,00 h
10.03.2018 09:00 22,3 C 7,3 C 4,6 C 67 % 19 % 1010 hPa 0,0 l/m 9,7 km/h (2 Bft) 0,00 h
10.03.2018 10:00 22,3 C 8,9 C 5,8 C 63 % 19 % 1010 hPa 0,0 l/m 6,8 km/h (2 Bft) 0,00 h
10.03.2018 11:00 22,2 C 9,9 C 7,0 C 61 % 19 % 1010 hPa 0,0 l/m 4,1 km/h (1 Bft) 0,00 h
10.03.2018 12:00 22,2 C 10,3 C 7,9 C 59 % 19 % 1010 hPa 0,0 l/m 1,6 km/h (1 Bft) 0,00 h
10.03.2018 13:00 22,1 C 10,6 C 8,6 C 58 % 19 % 1010 hPa 0,0 l/m 3,0 km/h (1 Bft) 0,00 h
10.03.2018 14:00 22,1 C 10,8 C 8,6 C 59 % 19 % 1010 hPa 0,0 l/m 0,5 km/h (0 Bft) 0,00 h
10.03.2018 15:00 22,4 C 10,6 C 8,7 C 61 % 19 % 1010 hPa 0,0 l/m 1,1 km/h (1 Bft) 0,00 h
10.03.2018 16:00 22,1 C 10,0 C 8,3 C 67 % 19 % 1009 hPa 0,0 l/m 0,4 km/h (0 Bft) 0,10 h
10.03.2018 17:00 21,9 C 9,2 C 7,9 C 71 % 19 % 1010 hPa 0,0 l/m 0,0 km/h (0 Bft) 0,90 h
10.03.2018 18:00 22,0 C 8,4 C 7,5 C 75 % 19 % 1010 hPa 0,0 l/m 0,0 km/h (0 Bft) 0,00 h
10.03.2018 19:00 22,0 C 7,8 C 7,1 C 77 % 19 % 1010 hPa 0,0 l/m 0,2 km/h (0 Bft) 0,00 h
10.03.2018 20:00 22,0 C 7,1 C 6,8 C 80 % 19 % 1010 hPa 0,0 l/m 0,3 km/h (0 Bft) 0,00 h
10.03.2018 21:00 21,9 C 6,5 C 6,4 C 82 % 19 % 1010 hPa 0,0 l/m 0,1 km/h (0 Bft) 0,00 h
10.03.2018 22:00 21,9 C 6,0 C 6,1 C 84 % 19 % 1010 hPa 0,0 l/m 0,0 km/h (0 Bft) 0,00 h
10.03.2018 23:00 21,9 C 6,3 C 6,0 C 82 % 19 % 1009 hPa 0,0 l/m 0,2 km/h (0 Bft) 0,00 h
11.03.2018 00:00 21,9 C 6,0 C 5,8 C 79 % 19 % 1009 hPa 0,0 l/m 0,9 km/h (0 Bft) 0,00 h
11.03.2018 01:00 21,8 C 4,5 C 5,1 C 83 % 19 % 1008 hPa 0,0 l/m 0,2 km/h (0 Bft) 0,00 h
11.03.2018 02:00 21,8 C 4,0 C 4,7 C 84 % 19 % 1008 hPa 0,0 l/m 0,2 km/h (0 Bft) 0,00 h
11.03.2018 03:00 21,8 C 4,1 C 4,4 C 84 % 19 % 1007 hPa 0,0 l/m 4,7 km/h (1 Bft) 0,00 h
11.03.2018 04:00 21,8 C 5,4 C 4,5 C 80 % 19 % 1007 hPa 0,0 l/m 8,4 km/h (2 Bft) 0,00 h
11.03.2018 05:00 21,8 C 4,0 C 4,1 C 83 % 19 % 1006 hPa 0,0 l/m 0,8 km/h (0 Bft) 0,00 h
11.03.2018 06:00 21,8 C 2,4 C 3,6 C 86 % 19 % 1006 hPa 0,0 l/m 0,6 km/h (0 Bft) 0,35 h
11.03.2018 07:00 21,8 C 3,2 C 3,6 C 84 % 19 % 1006 hPa 0,0 l/m 1,4 km/h (1 Bft) 0,45 h
11.03.2018 08:00 21,9 C 6,5 C 4,5 C 75 % 19 % 1005 hPa 0,0 l/m 3,9 km/h (1 Bft) 0,00 h
11.03.2018 09:00 21,9 C 8,8 C 6,0 C 69 % 19 % 1005 hPa 0,0 l/m 11,4 km/h (2 Bft) 0,00 h
11.03.2018 10:00 22,0 C 10,1 C 7,6 C 65 % 19 % 1005 hPa 0,0 l/m 11,7 km/h (2 Bft) 0,00 h
11.03.2018 11:00 22,0 C 11,1 C 8,8 C 62 % 19 % 1004 hPa 0,0 l/m 14,0 km/h (3 Bft) 0,00 h
11.03.2018 12:00 22,0 C 12,5 C 9,8 C 58 % 19 % 1003 hPa 0,0 l/m 13,8 km/h (3 Bft) 0,00 h
11.03.2018 13:00 22,0 C 13,6 C 11,0 C 56 % 19 % 1001 hPa 0,0 l/m 16,4 km/h (3 Bft) 0,00 h
11.03.2018 14:00 22,2 C 15,1 C 12,6 C 52 % 19 % 1001 hPa 0,0 l/m 16,1 km/h (3 Bft) 0,00 h
11.03.2018 15:00 22,3 C 14,8 C 13,1 C 53 % 19 % 1000 hPa 0,0 l/m 11,9 km/h (2 Bft) 0,00 h
11.03.2018 16:00 22,2 C 14,9 C 12,9 C 54 % 19 % 999 hPa 0,0 l/m 9,3 km/h (2 Bft) 0,05 h
11.03.2018 17:00 22,0 C 13,0 C 11,9 C 61 % 19 % 999 hPa 0,0 l/m 8,3 km/h (2 Bft) 0,95 h
11.03.2018 18:00 22,0 C 12,2 C 11,2 C 63 % 19 % 998 hPa 0,0 l/m 5,2 km/h (1 Bft) 0,00 h
11.03.2018 19:00 22,2 C 11,5 C 10,6 C 65 % 19 % 998 hPa 0,0 l/m 2,1 km/h (1 Bft) 0,00 h
11.03.2018 20:00 22,1 C 10,2 C 9,8 C 70 % 19 % 998 hPa 0,0 l/m 0,9 km/h (0 Bft) 0,00 h
11.03.2018 21:00 22,0 C 8,7 C 9,0 C 75 % 19 % 997 hPa 0,0 l/m 0,0 km/h (0 Bft) 0,00 h
11.03.2018 22:00 22,0 C 7,5 C 8,2 C 79 % 19 % 997 hPa 0,0 l/m 0,1 km/h (0 Bft) 0,00 h
11.03.2018 23:00 21,9 C 6,9 C 7,6 C 80 % 19 % 997 hPa 0,0 l/m 0,6 km/h (0 Bft) 0,00 h
Min-Datum _ 07.03.18 05.03.18 05.03.18 08.03.18 - 06.03.18 - 05.03.18 -
_ Min-Zeit 12:52 06:01 06:49 14:40 - 12:01 - 19:28 -
Minimum _ 19,8 C -2,6 C -1,4 C 34 % - 993 hPa - 0,0 km/h (0 Bft) -
Max-Datum _ 05.03.18 11.03.18 11.03.18 10.03.18 05.03.18 09.03.18 07.03.18 07.03.18 05.03.18
_ Max-Zeit 21:10 14:28 16:07 07:04 00:01 09:19 07:22 15:22 06:52
Maximum _ 24,8 C 15,6 C 13,5 C 86 % 19 % 1014 hPa 1,0 l/m 34,1 km/h
N (5 Bft)
0,05 h
Durchschnitt _ 22,5 C 4,3 C 4,1 C 72 % #13:45 h 1004 hPa #2,7 l/m 3,8 km/h (1 Bft) #13:45 h